QPF
0.01 0.01 0.03 0.03 0.04 0.08 0.13 0.16 0.19 0.19 0.17 0.17 0.18 0.21 0.24 0.26 0.27 0.26 0.22 0.23 0.27 0.29 0.27 0.22 0.17 0.13 0.08 0.07 0.07 0.05 0.05 0.05 0.06 0.05 0.05 0.06 0.04 0.03 0.03 0.03 0.03 0.02 0.03
0.03 0.03 0.03 0.04 0.05 0.08 0.14 0.20 0.22 0.19 0.17 0.18 0.18 0.21 0.27 0.30 0.28 0.26 0.21 0.19 0.20 0.22 0.24 0.22 0.18 0.15 0.12 0.08 0.06 0.05 0.04 0.03 0.04 0.04 0.04 0.04 0.04 0.03 0.01 0.01 0.01 0.02 0.03
0.03 0.04 0.04 0.05 0.05 0.06 0.11 0.15 0.14 0.10 0.09 0.09 0.09 0.09 0.09 0.09 0.08 0.10 0.13 0.16 0.17 0.16 0.16 0.17 0.17 0.15 0.13 0.11 0.08 0.05 0.04 0.03 0.02 0.03 0.02 0.02 0.02 0.02 0.01 0.00 0.01 0.01 0.02
0.02 0.03 0.04 0.03 0.03 0.04 0.06 0.06 0.06 0.06 0.06 0.04 0.03 0.04 0.04 0.04 0.05 0.06 0.07 0.09 0.09 0.11 0.13 0.13 0.15 0.15 0.12 0.10 0.08 0.06 0.05 0.04 0.02 0.02 0.02 0.01 0.01 0.01 0.01 0.00 0.00 0.01 0.01
0.02 0.04 0.04 0.03 0.02 0.03 0.03 0.03 0.03 0.03 0.03 0.03 0.03 0.04 0.03 0.04 0.03 0.04 0.05 0.06 0.07 0.08 0.09 0.11 0.13 0.15 0.14 0.11 0.08 0.06 0.06 0.05 0.03 0.03 0.02 0.02 0.01 0.01 0.01 0.01 0.01 0.01 0.01
0.03 0.03 0.02 0.02 0.02 0.01 0.01 0.01 0.01 0.02 0.02 0.02 0.02 0.02 0.02 0.02 0.02 0.03 0.04 0.04 0.04 0.05 0.06 0.07 0.09 0.11 0.12 0.11 0.08 0.06 0.07 0.06 0.05 0.04 0.04 0.03 0.02 0.02 0.01 0.01 0.01 0.01 0.01
0.03 0.02 0.02 0.01 0.01 0.00 0.00 0.00 0.01 0.00 0.01 0.01 0.01 0.01 0.01 0.01 0.01 0.01 0.02 0.02 0.03 0.03 0.03 0.04 0.06 0.08 0.09 0.09 0.08 0.06 0.06 0.07 0.08 0.07 0.06 0.06 0.03 0.03 0.02 0.02 0.01 0.01 0.01
0.01 0.01 0.00 0.00 0.00 0.00 0.00 0.00 0.00 0.00 0.00 0.00 0.00 0.00 0.01 0.01 0.01 0.00 0.00 0.01 0.01 0.02 0.02 0.03 0.04 0.04 0.05 0.06 0.06 0.07 0.07 0.08 0.09 0.08 0.09 0.08 0.06 0.05 0.04 0.03 0.03 0.02 0.01
0.00 0.00 0.00 0.00 0.00 0.00 0.00 0.00 0.00 0.00 0.00 0.00 0.01 0.01 0.01 0.01 0.01 0.01 0.00 0.00 0.00 0.00 0.01 0.01 0.02 0.03 0.03 0.03 0.03 0.04 0.05 0.07 0.09 0.09 0.09 0.09 0.08 0.07 0.06 0.06 0.05 0.03 0.02
0.00 0.00 0.00 0.00 0.00 0.00 0.00 0.00 0.00 0.00 0.00 0.01 0.01 0.01 0.01 0.01 0.01 0.01 0.00 0.00 0.00 0.00 0.00 0.01 0.01 0.01 0.02 0.02 0.03 0.03 0.03 0.04 0.05 0.07 0.08 0.08 0.08 0.07 0.07 0.07 0.07 0.05 0.04
0.00 0.00 0.00 0.00 0.00 0.00 0.00 0.00 0.01 0.01 0.00 0.00 0.01 0.01 0.01 0.00 0.00 0.01 0.01 0.00 0.00 0.00 0.00 0.01 0.01 0.01 0.01 0.01 0.02 0.02 0.03 0.03 0.03 0.05 0.06 0.08 0.09 0.08 0.07 0.08 0.09 0.09 0.07
0.00 0.00 0.00 0.00 0.00 0.00 0.00 0.00 0.00 0.00 0.00 0.00 0.00 0.00 0.00 0.01 0.01 0.01 0.00 0.00 0.00 0.00 0.00 0.00 0.01 0.01 0.01 0.01 0.01 0.01 0.02 0.02 0.03 0.04 0.04 0.05 0.07 0.08 0.08 0.08 0.09 0.10 0.11
0.00 0.00 0.00 0.00 0.00 0.00 0.00 0.00 0.00 0.00 0.00 0.00 0.00 0.00 0.00 0.00 0.01 0.00 0.01 0.01 0.01 0.01 0.00 0.00 0.01 0.01 0.01 0.01 0.01 0.01 0.01 0.01 0.01 0.02 0.04 0.05 0.05 0.07 0.08 0.06 0.06 0.07 0.09
0.00 0.00 0.00 0.00 0.00 0.00 0.00 0.00 0.00 0.00 0.00 0.00 0.00 0.00 0.00 0.01 0.00 0.00 0.01 0.01 0.01 0.01 0.01 0.00 0.00 0.00 0.00 0.01 0.01 0.01 0.01 0.01 0.01 0.01 0.02 0.03 0.05 0.06 0.07 0.08 0.07 0.06 0.08
0.00 0.00 0.00 0.00 0.00 0.00 0.00 0.00 0.00 0.00 0.00 0.00 0.00 0.00 0.01 0.01 0.01 0.01 0.01 0.01 0.01 0.01 0.01 0.02 0.02 0.01 0.01 0.00 0.00 0.01 0.01 0.02 0.02 0.02 0.02 0.02 0.03 0.05 0.07 0.08 0.08 0.08 0.07
0.00 0.00 0.00 0.00 0.00 0.00 0.00 0.00 0.00 0.00 0.00 0.00 0.00 0.01 0.01 0.01 0.02 0.02 0.02 0.02 0.02 0.02 0.02 0.02 0.02 0.02 0.00 0.00 0.00 0.00 0.00 0.01 0.01 0.02 0.02 0.02 0.02 0.03 0.04 0.07 0.08 0.08 0.08
0.00 0.00 0.00 0.00 0.00 0.00 0.00 0.00 0.00 0.00 0.00 0.00 0.01 0.01 0.01 0.02 0.02 0.02 0.02 0.03 0.04 0.05 0.05 0.05 0.04 0.03 0.01 0.00 0.00 0.00 0.01 0.01 0.01 0.01 0.02 0.02 0.02 0.02 0.03 0.05 0.09 0.10 0.09
0.00 0.00 0.00 0.00 0.00 0.00 0.00 0.00 0.00 0.00 0.01 0.01 0.01 0.02 0.02 0.03 0.03 0.03 0.04 0.05 0.06 0.07 0.07 0.06 0.05 0.05 0.03 0.01 0.00 0.00 0.00 0.01 0.01 0.01 0.01 0.01 0.01 0.01 0.01 0.03 0.06 0.08 0.09
0.00 0.00 0.00 0.00 0.00 0.00 0.00 0.00 0.01 0.01 0.01 0.01 0.02 0.03 0.04 0.05 0.05 0.06 0.07 0.07 0.08 0.08 0.07 0.07 0.06 0.06 0.04 0.01 0.00 0.00 0.01 0.02 0.01 0.01 0.01 0.01 0.01 0.01 0.01 0.02 0.04 0.06 0.07
0.00 0.00 0.00 0.00 0.00 0.00 0.00 0.01 0.01 0.01 0.02 0.03 0.04 0.05 0.06 0.07 0.06 0.07 0.08 0.08 0.09 0.09 0.08 0.06 0.06 0.05 0.05 0.02 0.00 0.00 0.01 0.02 0.02 0.02 0.02 0.01 0.01 0.01 0.01 0.01 0.02 0.04 0.06
0.00 0.00 0.00 0.00 0.00 0.00 0.01 0.02 0.02 0.02 0.03 0.05 0.05 0.06 0.06 0.07 0.07 0.07 0.08 0.08 0.08 0.08 0.08 0.07 0.07 0.06 0.05 0.03 0.01 0.00 0.01 0.02 0.02 0.02 0.02 0.01 0.00 0.00 0.01 0.01 0.02 0.04 0.05
0.00 0.00 0.00 0.00 0.00 0.01 0.02 0.03 0.03 0.04 0.05 0.06 0.06 0.07 0.06 0.06 0.06 0.08 0.08 0.08 0.09 0.08 0.08 0.08 0.07 0.06 0.05 0.03 0.01 0.00 0.00 0.01 0.02 0.02 0.02 0.02 0.01 0.00 0.01 0.02 0.03 0.05 0.05
0.00 0.00 0.00 0.00 0.00 0.01 0.02 0.03 0.03 0.04 0.05 0.07 0.07 0.06 0.05 0.06 0.07 0.08 0.08 0.08 0.08 0.08 0.07 0.07 0.07 0.07 0.07 0.05 0.01 0.00 0.00 0.00 0.01 0.02 0.02 0.01 0.00 0.01 0.01 0.02 0.04 0.07 0.06
0.00 0.00 0.00 0.00 0.01 0.01 0.02 0.03 0.04 0.05 0.06 0.06 0.05 0.05 0.06 0.06 0.06 0.08 0.08 0.07 0.07 0.08 0.07 0.06 0.06 0.07 0.07 0.06 0.05 0.03 0.01 0.01 0.01 0.01 0.01 0.00 0.01 0.01 0.02 0.03 0.04 0.08 0.08
0.00 0.00 0.00 0.01 0.01 0.01 0.02 0.03 0.04 0.06 0.06 0.06 0.05 0.05 0.06 0.06 0.05 0.06 0.06 0.06 0.07 0.06 0.05 0.06 0.07 0.07 0.07 0.05 0.03 0.03 0.04 0.04 0.04 0.04 0.04 0.03 0.02 0.02 0.03 0.04 0.06 0.10 0.12
0.00 0.00 0.00 0.01 0.01 0.02 0.02 0.03 0.05 0.06 0.06 0.06 0.05 0.06 0.06 0.05 0.06 0.05 0.05 0.03 0.03 0.02 0.01 0.02 0.02 0.03 0.02 0.01 0.01 0.01 0.01 0.01 0.01 0.02 0.04 0.05 0.05 0.05 0.05 0.08 0.10 0.12 0.14
MSLP
1011.50 1011.61 1011.67 1011.69 1011.65 1011.56 1011.44 1011.32 1011.22 1011.14 1011.08 1011.03 1010.99 1010.93 1010.86 1010.75 1010.63 1010.51 1010.39 1010.29 1010.22 1010.20 1010.21 1010.25 1010.33 1010.44 1010.59 1010.76 1010.97 1011.19 1011.42 1011.65 1011.84 1011.98 1012.06 1012.06 1012.00 1011.88 1011.72 1011.57 1011.44 1011.36 1011.34
1011.76 1011.85 1011.90 1011.89 1011.81 1011.69 1011.54 1011.40 1011.27 1011.17 1011.10 1011.05 1011.00 1010.94 1010.84 1010.73 1010.59 1010.44 1010.31 1010.20 1010.13 1010.11 1010.12 1010.18 1010.26 1010.36 1010.48 1010.61 1010.77 1010.94 1011.12 1011.30 1011.46 1011.60 1011.69 1011.73 1011.70 1011.63 1011.51 1011.38 1011.25 1011.15 1011.11
1011.76 1011.84 1011.88 1011.87 1011.79 1011.67 1011.52 1011.38 1011.25 1011.16 1011.10 1011.05 1011.00 1010.94 1010.84 1010.71 1010.56 1010.41 1010.27 1010.16 1010.11 1010.10 1010.13 1010.20 1010.29 1010.38 1010.47 1010.56 1010.66 1010.76 1010.87 1010.99 1011.11 1011.23 1011.33 1011.39 1011.41 1011.39 1011.32 1011.22 1011.11 1011.01 1010.93
1011.58 1011.66 1011.70 1011.69 1011.63 1011.53 1011.40 1011.28 1011.18 1011.11 1011.07 1011.04 1011.01 1010.95 1010.85 1010.73 1010.58 1010.42 1010.29 1010.20 1010.16 1010.18 1010.23 1010.32 1010.42 1010.50 1010.57 1010.62 1010.65 1010.68 1010.72 1010.77 1010.84 1010.93 1011.02 1011.10 1011.15 1011.17 1011.14 1011.08 1010.99 1010.89 1010.79
1011.34 1011.40 1011.44 1011.44 1011.40 1011.32 1011.22 1011.13 1011.06 1011.02 1011.01 1011.01 1010.99 1010.95 1010.87 1010.76 1010.62 1010.48 1010.37 1010.30 1010.28 1010.32 1010.41 1010.52 1010.62 1010.70 1010.75 1010.76 1010.74 1010.70 1010.67 1010.65 1010.67 1010.71 1010.78 1010.86 1010.93 1010.98 1010.99 1010.95 1010.87 1010.77 1010.65
1011.13 1011.16 1011.18 1011.18 1011.14 1011.07 1010.99 1010.93 1010.89 1010.88 1010.89 1010.91 1010.92 1010.91 1010.85 1010.76 1010.65 1010.54 1010.45 1010.41 1010.42 1010.49 1010.60 1010.73 1010.85 1010.93 1010.97 1010.95 1010.89 1010.80 1010.71 1010.63 1010.59 1010.60 1010.64 1010.70 1010.77 1010.83 1010.85 1010.82 1010.75 1010.64 1010.50
1011.00 1010.99 1010.98 1010.95 1010.89 1010.81 1010.73 1010.67 1010.64 1010.64 1010.67 1010.72 1010.75 1010.76 1010.74 1010.68 1010.60 1010.52 1010.47 1010.45 1010.50 1010.59 1010.73 1010.88 1011.02 1011.12 1011.16 1011.14 1011.06 1010.94 1010.81 1010.69 1010.61 1010.57 1010.58 1010.62 1010.67 1010.72 1010.73 1010.70 1010.62 1010.50 1010.35
1010.97 1010.90 1010.84 1010.76 1010.66 1010.55 1010.44 1010.36 1010.31 1010.31 1010.34 1010.39 1010.44 1010.48 1010.49 1010.46 1010.42 1010.37 1010.35 1010.37 1010.44 1010.56 1010.72 1010.90 1011.07 1011.19 1011.25 1011.25 1011.18 1011.06 1010.92 1010.78 1010.67 1010.61 1010.59 1010.60 1010.63 1010.65 1010.65 1010.60 1010.51 1010.38 1010.22
1011.00 1010.87 1010.74 1010.60 1010.44 1010.27 1010.11 1009.99 1009.90 1009.87 1009.88 1009.93 1009.98 1010.03 1010.06 1010.06 1010.05 1010.03 1010.04 1010.08 1010.18 1010.33 1010.52 1010.73 1010.93 1011.09 1011.19 1011.23 1011.19 1011.10 1010.98 1010.85 1010.74 1010.66 1010.62 1010.61 1010.61 1010.61 1010.59 1010.53 1010.42 1010.28 1010.12
1011.05 1010.86 1010.67 1010.46 1010.23 1009.99 1009.77 1009.58 1009.44 1009.36 1009.34 1009.35 1009.39 1009.43 1009.46 1009.48 1009.48 1009.48 1009.51 1009.57 1009.69 1009.86 1010.08 1010.33 1010.57 1010.78 1010.94 1011.03 1011.05 1011.01 1010.94 1010.84 1010.75 1010.68 1010.64 1010.61 1010.60 1010.58 1010.54 1010.47 1010.36 1010.22 1010.07
1011.07 1010.84 1010.59 1010.32 1010.02 1009.72 1009.43 1009.17 1008.97 1008.83 1008.75 1008.72 1008.72 1008.73 1008.74 1008.74 1008.74 1008.74 1008.77 1008.84 1008.98 1009.17 1009.41 1009.69 1009.97 1010.24 1010.46 1010.63 1010.72 1010.76 1010.74 1010.70 1010.65 1010.61 1010.58 1010.56 1010.55 1010.53 1010.48 1010.41 1010.31 1010.18 1010.05
1011.04 1010.78 1010.50 1010.18 1009.84 1009.48 1009.13 1008.81 1008.54 1008.34 1008.20 1008.11 1008.05 1008.01 1007.98 1007.94 1007.90 1007.88 1007.90 1007.96 1008.09 1008.29 1008.55 1008.86 1009.19 1009.51 1009.80 1010.03 1010.20 1010.31 1010.37 1010.39 1010.40 1010.39 1010.40 1010.40 1010.40 1010.40 1010.37 1010.31 1010.22 1010.12 1010.02
1010.96 1010.70 1010.40 1010.06 1009.68 1009.29 1008.90 1008.53 1008.21 1007.95 1007.74 1007.58 1007.46 1007.34 1007.24 1007.14 1007.05 1006.98 1006.96 1006.99 1007.11 1007.30 1007.57 1007.90 1008.27 1008.63 1008.98 1009.27 1009.51 1009.69 1009.82 1009.90 1009.96 1010.01 1010.05 1010.09 1010.13 1010.15 1010.15 1010.12 1010.06 1009.99 1009.92
1010.87 1010.61 1010.31 1009.96 1009.57 1009.16 1008.75 1008.35 1008.00 1007.69 1007.42 1007.19 1006.98 1006.79 1006.60 1006.42 1006.25 1006.11 1006.03 1006.02 1006.10 1006.28 1006.55 1006.89 1007.27 1007.67 1008.05 1008.40 1008.69 1008.93 1009.11 1009.25 1009.36 1009.45 1009.54 1009.63 1009.71 1009.77 1009.81 1009.82 1009.80 1009.76 1009.71
1010.79 1010.54 1010.24 1009.89 1009.50 1009.09 1008.67 1008.27 1007.89 1007.54 1007.23 1006.93 1006.65 1006.37 1006.09 1005.82 1005.56 1005.34 1005.19 1005.12 1005.16 1005.30 1005.55 1005.88 1006.27 1006.69 1007.09 1007.47 1007.79 1008.06 1008.28 1008.46 1008.61 1008.75 1008.89 1009.02 1009.15 1009.26 1009.35 1009.40 1009.42 1009.41 1009.38
1010.73 1010.48 1010.19 1009.84 1009.45 1009.04 1008.63 1008.22 1007.84 1007.47 1007.12 1006.78 1006.43 1006.07 1005.71 1005.34 1004.99 1004.69 1004.46 1004.33 1004.31 1004.42 1004.64 1004.95 1005.34 1005.75 1006.16 1006.54 1006.88 1007.17 1007.41 1007.61 1007.80 1007.97 1008.15 1008.33 1008.50 1008.67 1008.80 1008.89 1008.94 1008.94 1008.92
1010.71 1010.45 1010.14 1009.78 1009.38 1008.97 1008.56 1008.16 1007.77 1007.40 1007.03 1006.65 1006.26 1005.84 1005.40 1004.96 1004.53 1004.16 1003.86 1003.66 1003.59 1003.66 1003.85 1004.14 1004.50 1004.90 1005.30 1005.68 1006.02 1006.31 1006.55 1006.77 1006.98 1007.18 1007.39 1007.61 1007.83 1008.04 1008.21 1008.34 1008.40 1008.42 1008.38
1010.71 1010.41 1010.06 1009.67 1009.25 1008.82 1008.40 1007.99 1007.61 1007.24 1006.86 1006.47 1006.06 1005.61 1005.12 1004.63 1004.15 1003.72 1003.36 1003.12 1003.01 1003.03 1003.19 1003.46 1003.80 1004.18 1004.57 1004.93 1005.26 1005.54 1005.79 1006.01 1006.23 1006.45 1006.69 1006.94 1007.19 1007.43 1007.64 1007.78 1007.87 1007.87 1007.82
1010.71 1010.35 1009.94 1009.49 1009.02 1008.55 1008.11 1007.69 1007.30 1006.93 1006.56 1006.18 1005.76 1005.30 1004.81 1004.29 1003.79 1003.33 1002.94 1002.67 1002.53 1002.53 1002.66 1002.91 1003.23 1003.59 1003.96 1004.31 1004.63 1004.90 1005.14 1005.37 1005.59 1005.82 1006.08 1006.35 1006.63 1006.89 1007.12 1007.27 1007.35 1007.35 1007.28
1010.68 1010.25 1009.75 1009.22 1008.68 1008.16 1007.67 1007.22 1006.83 1006.46 1006.10 1005.73 1005.33 1004.89 1004.41 1003.91 1003.41 1002.95 1002.57 1002.29 1002.14 1002.13 1002.25 1002.48 1002.79 1003.13 1003.49 1003.83 1004.13 1004.39 1004.63 1004.85 1005.07 1005.31 1005.58 1005.86 1006.15 1006.42 1006.64 1006.80 1006.88 1006.86 1006.76
1010.62 1010.10 1009.51 1008.88 1008.26 1007.66 1007.11 1006.63 1006.21 1005.84 1005.50 1005.15 1004.78 1004.38 1003.93 1003.47 1003.00 1002.57 1002.21 1001.95 1001.81 1001.81 1001.92 1002.15 1002.45 1002.78 1003.13 1003.45 1003.74 1004.00 1004.22 1004.43 1004.65 1004.88 1005.14 1005.42 1005.70 1005.96 1006.18 1006.33 1006.39 1006.36 1006.25
1010.52 1009.90 1009.22 1008.50 1007.79 1007.11 1006.51 1005.98 1005.53 1005.15 1004.80 1004.48 1004.15 1003.79 1003.40 1002.99 1002.57 1002.19 1001.88 1001.65 1001.54 1001.55 1001.68 1001.90 1002.19 1002.52 1002.85 1003.16 1003.43 1003.67 1003.88 1004.07 1004.27 1004.48 1004.72 1004.97 1005.23 1005.47 1005.67 1005.80 1005.85 1005.81 1005.70
1010.38 1009.69 1008.93 1008.13 1007.34 1006.59 1005.92 1005.34 1004.86 1004.46 1004.11 1003.80 1003.50 1003.19 1002.85 1002.50 1002.15 1001.84 1001.58 1001.40 1001.32 1001.36 1001.50 1001.72 1002.01 1002.32 1002.63 1002.92 1003.17 1003.38 1003.56 1003.72 1003.89 1004.06 1004.25 1004.47 1004.68 1004.89 1005.05 1005.16 1005.20 1005.16 1005.05
1010.22 1009.49 1008.67 1007.82 1006.97 1006.17 1005.45 1004.82 1004.30 1003.87 1003.52 1003.21 1002.92 1002.64 1002.36 1002.07 1001.79 1001.53 1001.33 1001.21 1001.17 1001.24 1001.39 1001.61 1001.89 1002.18 1002.46 1002.71 1002.92 1003.09 1003.23 1003.34 1003.45 1003.57 1003.71 1003.86 1004.03 1004.18 1004.31 1004.38 1004.41 1004.37 1004.28
1010.06 1009.30 1008.47 1007.60 1006.73 1005.89 1005.14 1004.47 1003.92 1003.46 1003.08 1002.77 1002.49 1002.23 1001.98 1001.74 1001.51 1001.32 1001.18 1001.11 1001.11 1001.20 1001.36 1001.57 1001.82 1002.08 1002.32 1002.53 1002.68 1002.80 1002.87 1002.92 1002.97 1003.02 1003.08 1003.17 1003.26 1003.36 1003.44 1003.49 1003.50 1003.47 1003.41
1009.89 1009.16 1008.34 1007.49 1006.63 1005.80 1005.03 1004.35 1003.77 1003.28 1002.87 1002.53 1002.24 1001.99 1001.76 1001.55 1001.37 1001.23 1001.13 1001.10 1001.14 1001.24 1001.41 1001.61 1001.83 1002.04 1002.22 1002.37 1002.46 1002.50 1002.50 1002.48 1002.45 1002.42 1002.41 1002.42 1002.45 1002.48 1002.52 1002.53 1002.53 1002.51 1002.48
Thickness
5758 5760 5760 5760 5759 5756 5752 5749 5745 5741 5738 5734 5731 5729 5727 5726 5725 5724 5722 5720 5720 5717 5715 5716 5718 5718 5718 5719 5720 5720 5720 5723 5725 5724 5726 5731 5734 5735 5736 5738 5740 5742 5741
5750 5749 5748 5748 5746 5743 5740 5737 5734 5732 5729 5727 5724 5722 5720 5719 5718 5717 5715 5714 5714 5713 5713 5712 5713 5714 5713 5713 5713 5712 5714 5719 5721 5719 5719 5721 5726 5728 5736 5736 5736 5738 5740
5740 5739 5738 5737 5735 5732 5730 5728 5724 5722 5720 5717 5717 5715 5712 5710 5710 5709 5708 5707 5707 5707 5707 5707 5707 5707 5707 5708 5707 5708 5708 5711 5716 5718 5717 5716 5719 5725 5729 5730 5733 5733 5735
5733 5731 5728 5726 5724 5722 5720 5717 5714 5713 5710 5708 5708 5706 5702 5700 5699 5700 5699 5699 5699 5699 5699 5699 5699 5699 5701 5701 5702 5705 5705 5706 5708 5712 5713 5715 5719 5717 5719 5724 5729 5730 5729
5727 5723 5720 5718 5716 5715 5711 5708 5705 5702 5700 5698 5697 5696 5695 5693 5692 5690 5689 5689 5689 5689 5690 5691 5690 5690 5691 5692 5694 5697 5699 5702 5703 5707 5708 5708 5709 5712 5713 5715 5720 5724 5728
5721 5717 5715 5712 5709 5707 5704 5701 5697 5693 5690 5688 5687 5685 5683 5681 5679 5678 5678 5679 5680 5679 5679 5680 5680 5680 5682 5683 5685 5688 5690 5693 5696 5699 5703 5703 5704 5706 5709 5710 5711 5716 5723
5716 5712 5708 5705 5702 5700 5696 5693 5688 5684 5682 5679 5677 5675 5672 5670 5668 5668 5668 5667 5668 5668 5667 5668 5668 5669 5670 5672 5674 5677 5680 5683 5686 5689 5694 5698 5702 5705 5706 5707 5709 5711 5716
5711 5707 5704 5701 5697 5694 5689 5685 5680 5675 5672 5669 5666 5664 5661 5661 5661 5658 5657 5656 5656 5656 5654 5653 5654 5655 5657 5660 5662 5666 5669 5672 5675 5679 5683 5687 5693 5697 5700 5701 5703 5703 5707
5705 5702 5699 5695 5691 5686 5681 5677 5672 5667 5662 5659 5656 5652 5650 5648 5648 5645 5643 5644 5643 5642 5641 5640 5640 5641 5643 5645 5648 5652 5656 5660 5663 5667 5672 5676 5682 5686 5690 5694 5698 5697 5697
5699 5695 5691 5686 5681 5677 5672 5668 5662 5656 5652 5649 5645 5644 5641 5637 5634 5632 5631 5629 5628 5627 5626 5626 5626 5627 5628 5630 5632 5636 5640 5643 5649 5653 5658 5663 5670 5675 5679 5683 5688 5692 5693
5691 5687 5682 5677 5672 5668 5663 5658 5653 5648 5643 5639 5635 5631 5628 5625 5621 5618 5616 5615 5613 5612 5611 5611 5611 5612 5613 5615 5617 5621 5624 5628 5633 5639 5644 5650 5655 5661 5668 5673 5676 5681 5685
5682 5678 5673 5667 5661 5657 5652 5648 5643 5638 5633 5629 5624 5620 5616 5612 5609 5606 5603 5601 5599 5598 5597 5597 5597 5597 5598 5600 5601 5604 5609 5613 5618 5623 5629 5635 5642 5646 5652 5659 5664 5669 5674
5673 5667 5661 5655 5650 5645 5640 5636 5632 5627 5623 5618 5613 5608 5603 5599 5595 5591 5589 5587 5585 5584 5584 5583 5583 5584 5584 5586 5588 5590 5594 5599 5603 5608 5613 5620 5626 5631 5639 5645 5652 5658 5664
5663 5656 5650 5644 5639 5634 5629 5625 5620 5616 5611 5605 5599 5593 5588 5583 5580 5577 5575 5573 5572 5570 5570 5570 5571 5571 5571 5573 5575 5577 5579 5583 5588 5593 5598 5604 5610 5617 5623 5631 5638 5645 5651
5653 5647 5640 5635 5630 5625 5619 5614 5609 5603 5597 5590 5584 5579 5574 5569 5565 5562 5559 5557 5557 5558 5557 5558 5558 5559 5559 5561 5563 5565 5567 5569 5573 5579 5584 5590 5596 5602 5609 5617 5626 5633 5639
5644 5638 5632 5626 5621 5615 5610 5604 5597 5591 5584 5577 5571 5565 5559 5554 5550 5546 5544 5542 5542 5543 5544 5545 5546 5548 5551 5553 5551 5552 5556 5559 5562 5566 5572 5577 5583 5589 5593 5600 5607 5615 5625
5635 5629 5623 5618 5612 5607 5600 5593 5586 5579 5572 5564 5558 5551 5545 5540 5536 5534 5532 5530 5529 5529 5530 5532 5534 5537 5539 5539 5539 5539 5543 5549 5553 5556 5561 5567 5576 5578 5584 5590 5594 5602 5609
5627 5622 5616 5611 5605 5598 5591 5583 5576 5569 5561 5553 5546 5540 5533 5528 5525 5522 5520 5519 5518 5518 5519 5521 5524 5527 5529 5529 5529 5530 5533 5540 5544 5548 5552 5556 5562 5568 5573 5579 5588 5596 5604
5620 5614 5609 5603 5596 5589 5581 5574 5567 5560 5552 5544 5537 5529 5522 5517 5513 5511 5510 5509 5508 5509 5510 5512 5515 5518 5521 5521 5521 5520 5527 5533 5537 5542 5546 5549 5554 5558 5560 5566 5576 5585 5594
5615 5609 5603 5596 5588 5581 5573 5565 5559 5551 5544 5536 5528 5520 5513 5509 5506 5504 5502 5501 5501 5502 5504 5507 5510 5512 5515 5515 5515 5514 5524 5529 5534 5538 5541 5542 5546 5549 5550 5557 5566 5575 5585
5611 5604 5597 5589 5582 5574 5567 5559 5552 5545 5538 5530 5522 5515 5509 5504 5502 5500 5497 5496 5496 5497 5499 5502 5505 5508 5511 5511 5510 5511 5520 5526 5530 5535 5539 5542 5540 5540 5542 5547 5557 5567 5574
5608 5600 5592 5585 5578 5570 5562 5555 5548 5540 5533 5525 5518 5513 5507 5503 5502 5499 5496 5495 5494 5494 5496 5498 5501 5505 5507 5509 5509 5508 5511 5518 5525 5530 5535 5538 5535 5535 5536 5541 5549 5555 5561
5603 5596 5588 5581 5575 5567 5559 5551 5544 5536 5529 5522 5517 5512 5508 5504 5501 5499 5497 5496 5494 5494 5496 5498 5500 5503 5507 5508 5507 5506 5508 5511 5518 5526 5528 5528 5527 5528 5532 5535 5540 5546 5558
5599 5593 5585 5578 5572 5565 5557 5549 5542 5534 5527 5521 5517 5513 5509 5507 5505 5502 5500 5498 5497 5496 5497 5498 5500 5503 5505 5508 5510 5511 5511 5510 5514 5520 5522 5520 5521 5524 5530 5536 5539 5546 5558
5596 5589 5582 5576 5570 5563 5556 5549 5542 5535 5528 5523 5519 5515 5512 5510 5507 5506 5503 5501 5499 5497 5496 5499 5500 5501 5504 5506 5506 5510 5514 5517 5519 5520 5521 5524 5527 5528 5533 5538 5544 5550 5556
5593 5587 5580 5574 5568 5562 5556 5550 5543 5536 5530 5525 5521 5518 5515 5512 5510 5509 5507 5501 5498 5495 5493 5492 5494 5500 5499 5499 5501 5503 5504 5506 5508 5512 5520 5523 5527 5530 5534 5539 5544 5549 5555